Location: Taylor Dark Sky Site
(39.1017°N, 87.9564°W)
Time: 00:47:26
(UTC-05:00)

Amateur Radio Satellites - All Passes

Search period start: 23 May 2015 00:17
Search period end: 24 May 2015 00:17
Location: Taylor Dark Sky Site, 39.1017°N, 87.9564°W

Satellite Date Start Highest point End Downlink Frequencies (MHz)
Time Altitude Azimuth
SWISSCUBE 23 May 00:19:31 00:21:14 12° 63° (ENE) 00:23:11 437.505
TIGRISAT 23 May 00:20:43 00:24:34 29° 290° (WNW) 00:28:17 435.000
NANOSAT C BR1 23 May 00:34:46 00:38:50 41° 288° (WNW) 00:42:50 145.865
SPROUT 23 May 00:38:46 00:43:00 56° 260° (W) 00:47:17 437.525
QB50P2 23 May 00:39:20 00:43:18 36° 288° (WNW) 00:47:11 145.880/145.840
UNISAT 6 23 May 00:39:39 00:42:48 19° 293° (WNW) 00:45:44 437.425
POPSAT HIP 1 23 May 00:53:06 00:56:44 26° 290° (WNW) 01:00:17 437.405
DUCHIFAT 1 23 May 00:59:06 01:02:34 23° 291° (WNW) 01:05:54 145.980
CUSAT 1 23 May 01:01:58 01:09:41 80° 263° (W) 01:15:43 437.405
GONETS M04 23 May 01:07:25 01:16:16 79° 81° (E) 01:25:01
O/OREOS (USA 219) 23 May 01:11:36 01:11:56 10° 50° (NE) 01:12:32 437.305
PCSat 23 May 01:17:41 01:22:22 32° 110° (ESE) 01:27:09 145.827
TISAT 1 23 May 01:21:16 01:24:48 25° 265° (W) 01:28:17 437.305
KKS-1 23 May 01:32:20 01:32:32 10° 63° (ENE) 01:33:01 437.445
ITUPSAT 1 23 May 01:35:22 01:40:04 65° 74° (ENE) 01:44:48 437.325
DANDE 23 May 01:41:34 01:49:30 54° 268° (W) 01:55:54 436.750
ISS 23 May 01:42:22 01:45:32 52° 325° (NW) 01:48:45 145.825
BUGSAT 1 23 May 01:44:59 01:46:33 12° 295° (WNW) 01:47:53 437.445
BEESAT 23 May 01:46:02 01:50:47 86° 80° (E) 01:55:34 436.000
Cosmos 2499 23 May 01:51:03 01:56:35 25° 69° (ENE) 02:02:19 435.465 / 435.565
SWISSCUBE 23 May 01:53:49 01:58:33 73° 258° (WSW) 02:03:19 437.505
Oscar 19 23 May 02:06:03 02:11:07 53° 100° (E) 02:16:08 437.125/150
ITAMSAT 1 23 May 02:11:12 02:14:22 17° 90° (E) 02:17:45 435.822/435.867
Gurwin Techsat 1B 23 May 02:21:35 02:25:22 20° 92° (E) 02:29:19 435.225
STARS 23 May 02:43:40 02:47:44 37° 71° (ENE) 02:51:52 437.465
O/OREOS (USA 219) 23 May 02:47:37 02:52:06 85° 250° (WSW) 02:56:34 437.305
CUSAT 1 23 May 02:48:04 02:50:51 12° 283° (WNW) 02:52:59 437.405
BEESAT 2 23 May 02:57:44 02:59:02 11° 40° (NE) 03:00:29 435.950
PCSat 23 May 03:00:47 03:05:44 35° 307° (NW) 03:10:41 145.827
KKS-1 23 May 03:04:08 03:08:36 80° 258° (WSW) 03:13:07 437.445
GONETS M04 23 May 03:06:09 03:12:13 20° 279° (W) 03:17:47
VERMONT LUNAR 23 May 03:14:24 03:16:54 21° 151° (SSE) 03:19:26 437.305
ITUPSAT 1 23 May 03:16:31 03:18:30 12° 271° (W) 03:20:12 437.325
ISS 23 May 03:20:54 03:22:34 13° 344° (NNW) 03:24:13 145.825
AO-7 23 May 03:31:04 03:36:15 18° 89° (E) 03:41:55 29.400- 29.500
SO-50 23 May 03:35:23 03:39:04 24° 112° (ESE) 03:42:59 436.795
Cosmos 2499 23 May 03:43:21 03:50:11 53° 268° (W) 03:57:01 435.465 / 435.565
Oscar 19 23 May 03:46:31 03:50:06 19° 295° (WNW) 03:53:29 437.125/150
HORYU 2 23 May 03:49:01 03:52:27 22° 94° (E) 03:55:58 437.375
ITAMSAT 1 23 May 03:49:11 03:54:17 56° 288° (WNW) 03:59:23 435.822/435.867
BEESAT 3 23 May 03:51:11 03:55:03 40° 53° (NE) 03:58:52 437.485
AIST 2 23 May 03:55:48 03:57:54 14° 42° (NE) 04:00:09 435.215
Gurwin Techsat 1B 23 May 04:00:32 04:05:39 47° 288° (WNW) 04:10:42 435.225
MOZHAYETS 4 23 May 04:01:00 04:04:59 30° 71° (ENE) 04:09:01
STARS 23 May 04:21:08 04:24:20 19° 267° (W) 04:27:26 437.465
JAS-2 23 May 04:25:05 04:30:06 48° 99° (E) 04:35:11 435.910
PHONESAT 2.4 23 May 04:26:08 04:28:55 23° 151° (SSE) 04:31:45 2401.200-2431.200
BEESAT 2 23 May 04:33:39 04:37:46 86° 242° (WSW) 04:41:49 435.950
VERMONT LUNAR 23 May 04:50:39 04:53:52 83° 166° (SSE) 04:57:04 437.305
SO-50 23 May 05:15:02 05:19:26 38° 309° (NW) 05:23:57 436.795
AO-7 23 May 05:21:44 05:30:09 85° 288° (WNW) 05:38:32 29.400- 29.500
HORYU 2 23 May 05:25:13 05:29:09 31° 290° (WNW) 05:33:00 437.375
CUBESAT XI-V 23 May 05:27:55 05:31:14 21° 68° (ENE) 05:34:41 437.345
BEESAT 3 23 May 05:30:04 05:32:45 17° 249° (WSW) 05:35:16 437.485
AIST 2 23 May 05:32:49 05:37:02 72° 241° (WSW) 05:41:09 435.215
PRISM 23 May 05:36:33 05:36:46 10° 64° (ENE) 05:37:13 437.425
MOZHAYETS 4 23 May 05:38:28 05:42:14 24° 266° (W) 05:45:55
Cubesat XI-IV 23 May 05:50:31 05:52:16 12° 88° (E) 05:54:23 437.490
PHONESAT 2.4 23 May 06:03:19 06:06:47 83° 168° (SSE) 06:10:16 2401.200-2431.200
M-CUBED/EXP-1 PRIME 23 May 06:06:31 06:09:43 21° 65° (ENE) 06:12:50 437.505
JAS-2 23 May 06:11:20 06:14:58 19° 295° (WNW) 06:18:24 435.910
AUBIESAT-1 23 May 06:18:42 06:22:08 24° 66° (ENE) 06:25:26 437.475
VERMONT LUNAR 23 May 06:27:58 06:31:09 65° 2° (N) 06:34:21 437.305
ISS 23 May 06:35:03 06:37:34 20° 24° (NNE) 06:40:05 145.825
STRAND 1 23 May 06:36:01 06:40:50 47° 72° (ENE) 06:45:44 437.568
Cosmos 2491 23 May 06:51:04 06:59:42 56° 77° (ENE) 07:08:19 435.465 / 435.565
CUBESAT XI-V 23 May 07:04:12 07:08:28 37° 263° (W) 07:12:44 437.345
PRISM 23 May 07:07:40 07:11:44 66° 258° (WSW) 07:15:49 437.425
CUTE-I 23 May 07:08:28 07:13:49 69° 101° (ESE) 07:19:10 437.470
AO-7 23 May 07:16:19 07:21:55 20° 307° (NW) 07:27:12 29.400- 29.500
Cubesat XI-IV 23 May 07:27:43 07:33:05 79° 286° (WNW) 07:38:27 437.490
BRITE-PL 23 May 07:36:10 07:38:43 14° 86° (E) 07:41:33 437.365/2234.400
M-CUBED/EXP-1 PRIME 23 May 07:40:21 07:44:25 34° 257° (WSW) 07:48:10 437.505
PHONESAT 2.4 23 May 07:41:33 07:45:00 68° 3° (N) 07:48:28 2401.200-2431.200
YUBILEINY 23 May 07:42:31 07:50:53 53° 91° (E) 07:59:20 435.215
RS-15 23 May 07:48:56 07:53:58 15° 100° (E) 07:59:58 29.354- 29.394
AUBIESAT-1 23 May 07:53:00 07:56:49 28° 258° (WSW) 08:00:20 437.475
GOMX 1 23 May 08:00:52 08:03:29 14° 86° (E) 08:06:20 467.674
VERMONT LUNAR 23 May 08:05:14 08:08:24 61° 199° (SSW) 08:11:34 437.305
ISS 23 May 08:11:00 08:14:14 59° 222° (SW) 08:17:27 145.825
STRAND 1 23 May 08:16:41 08:20:21 19° 268° (W) 08:23:51 437.568
CANX-2 23 May 08:26:35 08:28:27 13° 90° (E) 08:30:31 2200.000
CUTE 1.7 + AOD 2 23 May 08:30:48 08:32:41 13° 90° (E) 08:34:47 437.475
HO-68 23 May 08:37:20 08:43:04 27° 93° (E) 08:48:59 435.675
AIST 1 23 May 08:41:34 08:45:57 78° 264° (W) 08:50:20
Cosmos 2491 23 May 08:48:42 08:56:09 31° 275° (W) 09:03:19 435.465 / 435.565
CUTE-I 23 May 08:50:13 08:53:23 16° 297° (WNW) 08:56:19 437.470
SEEDS 23 May 08:59:05 09:02:22 23° 94° (E) 09:05:43 437.485
Cubesat XI-IV 23 May 09:11:47 09:12:26 10° 300° (WNW) 09:12:45 437.490
BRITE-PL 23 May 09:12:14 09:17:57 78° 285° (WNW) 09:23:27 437.365/2234.400
COMPASS 1 23 May 09:18:57 09:22:38 30° 96° (E) 09:26:20 437.405
PHONESAT 2.4 23 May 09:19:43 09:23:09 62° 199° (SSW) 09:26:35 2401.200-2431.200
DOVE 4 23 May 09:20:37 09:25:44 55° 99° (E) 09:30:35 437.250
CINEMA 3 23 May 09:30:27 09:34:44 32° 95° (E) 09:38:53 145.822/145.860
AAUSAT CUBESAT 2 23 May 09:34:38 09:38:32 40° 98° (E) 09:42:26 437.432
GOMX 1 23 May 09:36:48 09:42:15 69° 285° (WNW) 09:47:25 467.674
ZACube-1 23 May 09:37:43 09:37:48 10° 87° (E) 09:38:11 437.345
YUBILEINY 23 May 09:40:23 09:48:08 33° 290° (WNW) 09:55:41 435.215
TIGRISAT 23 May 09:42:04 09:45:28 21° 68° (ENE) 09:48:59 435.000
VERMONT LUNAR 23 May 09:43:27 09:45:14 14° 213° (SSW) 09:46:58 437.305
Cosmos 2504 23 May 09:44:50 09:51:56 32° 87° (E) 09:58:52 435.465 / 435.565
NANOSAT C BR1 23 May 09:53:27 09:54:34 11° 64° (ENE) 09:55:54 145.865
RS-15 23 May 09:53:53 10:04:43 77° 117° (ESE) 10:15:50 29.354- 29.394
Oscar 11 23 May 09:56:50 10:00:43 32° 97° (E) 10:04:35 145.826/435.025
QB50P2 23 May 09:57:27 09:59:19 13° 66° (ENE) 10:01:23 145.880/145.840
UNISAT 6 23 May 09:59:47 10:03:55 32° 71° (ENE) 10:08:05 437.425
CANX-2 23 May 10:00:39 10:04:43 47° 286° (WNW) 10:08:45 2200.000
CUTE 1.7 + AOD 2 23 May 10:04:52 10:08:56 47° 286° (WNW) 10:12:58 437.475
PCSat 23 May 10:06:34 10:10:45 23° 48° (NE) 10:15:01 145.827
POPSAT HIP 1 23 May 10:09:52 10:12:36 17° 67° (ENE) 10:15:30 437.405
UWE-3 23 May 10:10:25 10:14:25 33° 96° (E) 10:18:20 435.000/436.395/437.385
DUCHIFAT 1 23 May 10:15:05 10:18:02 19° 68° (ENE) 10:21:09 145.980
HO-68 23 May 10:24:14 10:31:12 55° 291° (WNW) 10:38:06 435.675
DELFI C3 23 May 10:30:09 10:34:08 57° 101° (E) 10:38:05 145.870
FUNcube-1 23 May 10:31:46 10:35:57 44° 98° (E) 10:40:01 145.935
SEEDS 23 May 10:34:36 10:38:10 27° 289° (WNW) 10:41:38 437.485
ANTELSAT 23 May 10:42:18 10:47:01 90° 137° (SE) 10:51:45 437.575/2403.000
CUBEBUG 2 23 May 10:50:14 10:54:46 68° 285° (WNW) 10:59:05 437.445
POLYITAN 1 23 May 10:52:23 10:56:34 52° 74° (ENE) 11:00:48 437.675
QB50P1 23 May 10:52:49 10:56:57 51° 74° (ENE) 11:01:08 145.935-145.965
BRITE-PL 23 May 10:53:52 10:55:35 11° 300° (WNW) 10:56:57 437.365/2234.400
COMPASS 1 23 May 10:55:03 10:58:09 20° 291° (WNW) 11:01:08 437.405
BUGSAT 1 23 May 10:56:19 11:00:05 36° 72° (ENE) 11:03:57 437.445
PHONESAT 2.4 23 May 10:58:46 11:00:53 15° 213° (SSW) 11:02:56 2401.200-2431.200
DOVE 4 23 May 10:59:32 11:03:01 18° 295° (WNW) 11:06:13 437.250
CINEMA 3 23 May 11:07:51 11:11:47 25° 292° (WNW) 11:15:29 145.822/145.860
ESTCUBE 1 23 May 11:08:49 11:11:30 16° 91° (E) 11:14:21 437.505/2401.250
ZACube-1 23 May 11:10:23 11:14:45 64° 285° (WNW) 11:18:57 437.345
AAUSAT CUBESAT 2 23 May 11:11:17 11:13:51 16° 292° (WNW) 11:16:16 437.432
TIGRISAT 23 May 11:17:33 11:21:58 39° 262° (W) 11:26:22 435.000
UKube-1 23 May 11:20:54 11:25:15 71° 101° (ESE) 11:29:35 .
VELOX 1 23 May 11:21:24 11:25:33 37° 97° (E) 11:29:42 145.980
DX 1 23 May 11:23:23 11:27:49 82° 103° (ESE) 11:32:12 434.975-435.025
NANOSAT C BR1 23 May 11:25:40 11:29:53 66° 259° (WSW) 11:34:10 145.865
QB50P2 23 May 11:30:35 11:34:47 55° 260° (W) 11:39:01 145.880/145.840
CUBEBUG 1 23 May 11:32:06 11:35:42 24° 94° (E) 11:39:23 437.445
Oscar 11 23 May 11:33:27 11:36:42 21° 291° (WNW) 11:39:51 145.826/435.025
UNISAT 6 23 May 11:36:49 11:40:43 25° 266° (W) 11:44:30 437.425
Cosmos 2504 23 May 11:36:55 11:45:07 50° 283° (WNW) 11:52:46 435.465 / 435.565
HUMSAT D 23 May 11:38:43 11:42:53 66° 284° (WNW) 11:46:58 437.325/437.525
POPSAT HIP 1 23 May 11:44:10 11:48:12 39° 262° (W) 11:52:15 437.405
UWE-3 23 May 11:47:22 11:50:45 21° 292° (WNW) 11:53:57 435.000/436.395/437.385
PCSat 23 May 11:49:15 11:54:33 55° 247° (WSW) 11:59:48 145.827
DUCHIFAT 1 23 May 11:49:43 11:53:38 35° 263° (W) 11:57:34 145.980
AISAT 23 May 11:51:15 11:55:47 84° 105° (ESE) 12:00:16 437.250
50 SAT 23 May 11:57:46 12:01:39 68° 284° (WNW) 12:05:28 437.505
SO-50 23 May 12:07:29 12:11:11 21° 44° (NE) 12:14:57 436.795
DELFI C3 23 May 12:07:40 12:08:48 11° 294° (WNW) 12:09:43 145.870
RS-15 23 May 12:08:36 12:18:21 34° 323° (NW) 12:28:13 29.354- 29.394
FUNcube-1 23 May 12:09:13 12:11:55 16° 294° (WNW) 12:14:26 145.935
GONETS M04 23 May 12:14:19 12:19:20 18° 80° (E) 12:24:52
CUSAT 1 23 May 12:24:26 12:29:22 22° 82° (E) 12:35:10 437.405
SPROUT 23 May 12:26:57 12:30:36 26° 95° (E) 12:34:18 437.525
POLYITAN 1 23 May 12:30:51 12:32:51 13° 271° (W) 12:34:38 437.675
QB50P1 23 May 12:31:13 12:33:12 13° 271° (W) 12:34:57 145.935-145.965
BUGSAT 1 23 May 12:33:01 12:35:45 17° 268° (W) 12:38:21 437.445
ESTCUBE 1 23 May 12:44:19 12:48:39 45° 287° (WNW) 12:52:58 437.505/2401.250
VELOX 1 23 May 12:58:33 13:01:53 20° 293° (WNW) 13:05:05 145.980
UKube-1 23 May 12:59:46 13:00:53 11° 296° (WNW) 13:01:44 .
TISAT 1 23 May 13:06:02 13:10:14 54° 100° (E) 13:14:25 437.305
DANDE 23 May 13:06:33 13:12:21 35° 87° (E) 13:19:26 436.750
CUBEBUG 1 23 May 13:08:13 13:12:03 29° 290° (WNW) 13:15:51 437.445
Oscar 19 23 May 13:21:36 13:26:45 69° 75° (ENE) 13:31:57 437.125/150
ITAMSAT 1 23 May 13:27:59 13:31:57 24° 66° (ENE) 13:36:03 435.822/435.867
JUGNU 23 May 13:37:23 13:38:33 11° 177° (S) 13:39:43 437.505
ITUPSAT 1 23 May 13:38:08 13:41:20 18° 92° (E) 13:44:43 437.325
Gurwin Techsat 1B 23 May 13:41:25 13:45:54 29° 68° (ENE) 13:50:29 435.225
SO-50 23 May 13:47:16 13:52:08 57° 243° (WSW) 13:56:54 436.795
BEESAT 23 May 13:48:03 13:51:50 24° 94° (E) 13:55:43 436.000
SWISSCUBE 23 May 13:55:34 13:59:47 31° 96° (E) 14:04:02 437.505
SPROUT 23 May 14:03:01 14:06:37 25° 290° (WNW) 14:10:08 437.525
CUSAT 1 23 May 14:04:18 14:11:08 73° 281° (WNW) 14:19:20 437.405
GONETS M04 23 May 14:06:17 14:15:08 88° 278° (W) 14:24:04
Cosmos 2499 23 May 14:26:50 14:32:41 23° 85° (E) 14:38:34 435.465 / 435.565
RS-15 23 May 14:28:40 14:35:40 18° 357° (N) 14:42:48 29.354- 29.394
AO-7 23 May 14:29:01 14:35:21 26° 57° (ENE) 14:41:56 29.400- 29.500
JAS-2 23 May 14:36:37 14:41:31 22° 66° (ENE) 14:46:13 435.910
TISAT 1 23 May 14:43:28 14:45:36 13° 294° (WNW) 14:47:31 437.305
HORYU 2 23 May 14:46:39 14:49:48 20° 67° (ENE) 14:53:04 437.375
DANDE 23 May 14:48:56 14:55:21 45° 289° (WNW) 15:03:06 436.750
KKS-1 23 May 14:57:09 15:00:33 22° 93° (E) 15:04:03 437.445
Oscar 19 23 May 15:04:07 15:06:42 13° 272° (W) 15:09:00 437.125/150
ITAMSAT 1 23 May 15:06:23 15:11:14 41° 262° (W) 15:16:06 435.822/435.867
ITUPSAT 1 23 May 15:14:56 15:19:30 44° 288° (WNW) 15:24:00 437.325
Gurwin Techsat 1B 23 May 15:21:01 15:25:49 33° 264° (W) 15:30:34 435.225
O/OREOS (USA 219) 23 May 15:22:19 15:24:04 12° 100° (E) 15:26:04 437.305
BEESAT 23 May 15:25:27 15:29:45 34° 290° (WNW) 15:34:00 436.000
SWISSCUBE 23 May 15:33:33 15:37:32 26° 292° (WNW) 15:41:27 437.505
CUSAT 1 23 May 15:51:32 15:55:42 15° 305° (NW) 15:59:38 437.405
GONETS M04 23 May 16:07:47 16:13:32 18° 299° (WNW) 16:18:48
STARS 23 May 16:10:24 16:14:52 87° 101° (E) 16:19:17 437.465
Cosmos 2499 23 May 16:17:05 16:25:21 66° 280° (W) 16:33:01 435.465 / 435.565
AO-7 23 May 16:19:14 16:27:30 72° 255° (WSW) 16:35:50 29.400- 29.500
JAS-2 23 May 16:19:22 16:26:20 61° 259° (W) 16:32:28 435.910
HORYU 2 23 May 16:22:00 16:26:12 38° 262° (W) 16:30:23 437.375
KKS-1 23 May 16:33:14 16:37:17 33° 289° (WNW) 16:41:14 437.445
SRMSAT 23 May 16:35:08 16:36:15 10° 184° (S) 16:37:20 437.500
RS-15 23 May 16:44:04 16:53:29 29° 31° (NNE) 17:03:30 29.354- 29.394
CUTE-I 23 May 16:52:57 16:55:08 13° 61° (ENE) 16:57:35 437.470
O/OREOS (USA 219) 23 May 16:58:36 17:03:03 57° 294° (WNW) 17:07:31 437.305
Cubesat XI-IV 23 May 17:10:43 17:14:19 19° 65° (ENE) 17:18:07 437.490
MOZHAYETS 4 23 May 17:33:35 17:38:10 86° 102° (ESE) 17:42:44
YUBILEINY 23 May 17:54:45 18:01:18 24° 65° (ENE) 18:08:10 435.215
Cosmos 2491 23 May 18:02:45 18:03:30 10° 76° (ENE) 18:05:05 435.465 / 435.565
Cosmos 2499 23 May 18:18:11 18:20:11 11° 301° (WNW) 18:21:32 435.465 / 435.565
AO-7 23 May 18:18:59 18:21:57 12° 275° (W) 18:24:09 29.400- 29.500
BEESAT 2 23 May 18:26:55 18:30:06 23° 113° (ESE) 18:33:25 435.950
CUTE-I 23 May 18:29:16 18:34:35 82° 255° (WSW) 18:39:56 437.470
BRITE-PL 23 May 18:46:26 18:48:37 13° 62° (ENE) 18:51:08 437.365/2234.400
STRAND 1 23 May 18:48:42 18:51:57 17° 91° (E) 18:55:24 437.568
Cubesat XI-IV 23 May 18:48:52 18:54:03 53° 260° (W) 18:59:16 437.490
PRISM 23 May 18:51:58 18:54:46 18° 93° (E) 18:57:42 437.425
RS-15 23 May 18:56:19 19:08:02 83° 58° (ENE) 19:20:14 29.354- 29.394
CUBESAT XI-V 23 May 19:01:29 19:06:07 58° 100° (E) 19:10:45 437.345
HO-68 23 May 19:06:17 19:10:53 19° 58° (ENE) 19:15:46 435.675
GOMX 1 23 May 19:08:10 19:10:37 14° 62° (ENE) 19:13:24 467.674
BEESAT 3 23 May 19:20:13 19:24:16 72° 302° (WNW) 19:28:24 437.485
M-CUBED/EXP-1 PRIME 23 May 19:24:03 19:25:32 13° 97° (E) 19:27:08 437.505
AIST 2 23 May 19:29:47 19:33:31 31° 114° (ESE) 19:37:21 435.215
AUBIESAT-1 23 May 19:35:26 19:37:26 15° 98° (E) 19:39:31 437.475
Cosmos 2491 23 May 19:50:14 19:58:53 67° 93° (E) 20:07:38 435.465 / 435.565
YUBILEINY 23 May 19:50:24 19:59:03 70° 266° (W) 20:07:39 435.215
SEEDS 23 May 19:51:04 19:53:27 15° 67° (ENE) 19:56:00 437.485
BEESAT 2 23 May 20:04:21 20:08:04 31° 309° (NW) 20:11:47 435.950
COMPASS 1 23 May 20:09:45 20:12:44 20° 69° (ENE) 20:15:48 437.405
BRITE-PL 23 May 20:21:29 20:26:23 78° 258° (WSW) 20:31:46 437.365/2234.400
DOVE 4 23 May 20:24:23 20:29:11 49° 73° (ENE) 20:34:16 437.250
AAUSAT CUBESAT 2 23 May 20:24:43 20:28:04 24° 70° (ENE) 20:31:30 437.432
STRAND 1 23 May 20:26:32 20:31:32 52° 288° (WNW) 20:36:30 437.568
PRISM 23 May 20:26:35 20:30:20 34° 289° (WNW) 20:34:05 437.425
CINEMA 3 23 May 20:30:41 20:34:51 29° 69° (ENE) 20:39:10 145.822/145.860
CUBESAT XI-V 23 May 20:40:29 20:43:08 15° 295° (WNW) 20:45:35 437.345
GOMX 1 23 May 20:43:05 20:48:03 75° 258° (WSW) 20:53:25 467.674
HO-68 23 May 20:50:40 20:57:52 83° 255° (WSW) 21:05:07 435.675
Oscar 11 23 May 20:50:56 20:54:18 23° 69° (ENE) 20:57:46 145.826/435.025
CANX-2 23 May 20:51:57 20:56:14 80° 258° (WSW) 21:00:32 2200.000
CUTE 1.7 + AOD 2 23 May 20:56:06 21:00:22 80° 257° (WSW) 21:04:40 437.475
M-CUBED/EXP-1 PRIME 23 May 20:57:39 21:00:34 28° 293° (WNW) 21:03:26 437.505
UWE-3 23 May 21:06:20 21:10:10 26° 70° (ENE) 21:14:06 435.000/436.395/437.385
AIST 2 23 May 21:08:31 21:12:08 26° 311° (NW) 21:15:43 435.215
AUBIESAT-1 23 May 21:09:33 21:12:18 24° 294° (WNW) 21:14:58 437.475
AIST 1 23 May 21:09:41 21:13:53 65° 96° (E) 21:18:09
RS-15 23 May 21:10:17 21:19:32 26° 256° (WSW) 21:28:25 29.354- 29.394
DELFI C3 23 May 21:16:39 21:20:09 30° 72° (ENE) 21:23:42 145.870
SEEDS 23 May 21:24:52 21:28:56 44° 261° (W) 21:32:59 437.485
FUNcube-1 23 May 21:26:11 21:30:13 32° 71° (ENE) 21:34:20 145.935
Cosmos 2504 23 May 21:30:43 21:37:47 54° 78° (ENE) 21:44:48 435.465 / 435.565
COMPASS 1 23 May 21:44:24 21:48:13 32° 264° (W) 21:51:59 437.405
CUBEBUG 2 23 May 21:46:30 21:51:15 86° 75° (ENE) 21:56:04 437.445
Cosmos 2491 23 May 21:49:24 21:56:34 26° 294° (WNW) 22:03:30 435.465 / 435.565
YUBILEINY 23 May 21:51:58 21:54:29 11° 283° (WNW) 21:56:13 435.215
AAUSAT CUBESAT 2 23 May 22:00:05 22:03:37 25° 265° (W) 22:07:05 437.432
DOVE 4 23 May 22:03:40 22:07:17 19° 271° (W) 22:10:50 437.250
ZACube-1 23 May 22:04:29 22:09:05 86° 77° (ENE) 22:13:42 437.345
CINEMA 3 23 May 22:07:33 22:11:57 31° 265° (W) 22:16:23 145.822/145.860
ESTCUBE 1 23 May 22:08:24 22:10:32 14° 65° (ENE) 22:12:52 437.505/2401.250
UKube-1 23 May 22:14:31 22:18:41 51° 73° (ENE) 22:22:55 .
DX 1 23 May 22:17:42 22:21:58 61° 74° (ENE) 22:26:17 434.975-435.025
VELOX 1 23 May 22:18:08 22:21:55 29° 70° (ENE) 22:25:47 145.980
Oscar 11 23 May 22:26:33 22:30:22 29° 264° (W) 22:34:09 145.826/435.025
CUBEBUG 1 23 May 22:27:53 22:30:49 19° 67° (ENE) 22:33:55 437.445
HUMSAT D 23 May 22:28:49 22:33:08 73° 76° (ENE) 22:37:27 437.325/437.525
ANTELSAT 23 May 22:36:40 22:39:49 20° 92° (E) 22:43:03 437.575/2403.000
50 SAT 23 May 22:40:57 22:44:53 55° 75° (ENE) 22:48:49 437.505
UWE-3 23 May 22:42:27 22:46:36 30° 265° (W) 22:50:42 435.000/436.395/437.385
HO-68 23 May 22:43:32 22:46:48 13° 274° (W) 22:49:29 435.675
AISAT 23 May 22:47:44 22:52:06 64° 75° (ENE) 22:56:33 437.250
DELFI C3 23 May 22:52:21 22:55:19 19° 267° (W) 22:58:11 145.870
FUNcube-1 23 May 23:02:52 23:06:35 23° 267° (W) 23:10:13 145.935
CUSAT 1 23 May 23:04:39 23:08:51 16° 56° (ENE) 23:12:57 437.405
TIGRISAT 23 May 23:10:27 23:14:42 45° 98° (E) 23:18:51 435.000
NANOSAT C BR1 23 May 23:12:27 23:15:41 21° 93° (E) 23:19:01 145.865
QB50P2 23 May 23:17:30 23:21:03 25° 95° (E) 23:24:38 145.880/145.840
SPROUT 23 May 23:20:42 23:23:40 19° 68° (ENE) 23:26:47 437.525
Cosmos 2504 23 May 23:25:07 23:30:44 24° 275° (W) 23:36:03 435.465 / 435.565
UNISAT 6 23 May 23:29:10 23:33:36 79° 102° (ESE) 23:37:55 437.425
POPSAT HIP 1 23 May 23:30:27 23:34:22 34° 97° (E) 23:38:17 437.405
DUCHIFAT 1 23 May 23:35:20 23:39:20 38° 98° (E) 23:43:19 145.980
ESTCUBE 1 23 May 23:42:34 23:46:58 57° 260° (W) 23:51:23 437.505/2401.250
DANDE 23 May 23:49:55 23:56:46 30° 65° (ENE) 00:02:44 436.750
UKube-1 23 May 23:53:05 23:55:12 13° 270° (W) 23:57:05 .
VELOX 1 23 May 23:54:51 23:58:29 24° 266° (W) 00:02:03 145.980
TISAT 1 23 May 23:57:09 00:00:58 34° 71° (ENE) 00:04:51 437.305
DX 1 23 May 23:57:22 23:58:42 11° 271° (W) 23:59:46 434.975-435.025
CUBEBUG 1 24 May 00:02:53 00:06:56 38° 262° (W) 00:11:00 437.445
